• In United Kingdom
  • List of Countries
  • For 7 days
  • Water Temperature
  • Satellite Maps
  • Weather Map
  • Weather Widgets
  • user-avatar
    Login

    Hourly Weather Linz

    Today, 22 September, Friday

    Time Temperature Precipitation Wind Pressure Humidity
    00:00 +9°C° 0 mm 1 mps 737 mmHg 92%
    01:00 +8°C° 0 mm 1 mps 737 mmHg 92%
    02:00 +8°C° 0 mm 1 mps 737 mmHg 92%
    03:00 +8°C° 0 mm 1 mps 737 mmHg 92%
    04:00 +8°C° 0 mm 1 mps 737 mmHg 92%
    05:00 +9°C° 0 mm 1 mps 737 mmHg 90%
    06:00 +9°C° 0 mm 1 mps 737 mmHg 89%
    07:00 +9°C° 0 mm 1 mps 737 mmHg 88%
    08:00 +12°C° 0 mm 1 mps 737 mmHg 81%
    09:00 +14°C° 0 mm 1 mps 736 mmHg 74%
    10:00 +15°C° 0 mm 0 mps 736 mmHg 67%
    11:00 +16°C° 0 mm 0 mps 736 mmHg 65%
    12:00 +19°C° 0 mm 1 mps 736 mmHg 62%
    13:00 +20°C° 0 mm 1 mps 736 mmHg 59%
    14:00 +19°C° 0 mm 1 mps 736 mmHg 63%
    15:00 +19°C° 0 mm 1 mps 736 mmHg 66%
    16:00 +18°C° 0 mm 1 mps 736 mmHg 69%
    17:00 +16°C° 0.1 mm 1 mps 736 mmHg 75%
    18:00 +13°C° 0.1 mm 0 mps 736 mmHg 82%
    19:00 +12°C° 0.1 mm 0 mps 737 mmHg 88%
    20:00 +11°C° 0 mm 0 mps 737 mmHg 90%
    21:00 +11°C° 0 mm 0 mps 737 mmHg 91%
    22:00 +11°C° 0 mm 1 mps 738 mmHg 92%
    23:00 +11°C° 0 mm 1 mps 738 mmHg 93%

    Tomorrow, 23 September, Saturday

    Time Temperature Precipitation Wind Pressure Humidity
    00:00 +11°C° 0 mm 1 mps 738 mmHg 93%
    01:00 +10°C° 0 mm 1 mps 738 mmHg 93%
    02:00 +10°C° 0 mm 1 mps 738 mmHg 93%
    03:00 +10°C° 0 mm 1 mps 738 mmHg 93%
    04:00 +10°C° 0 mm 1 mps 738 mmHg 94%
    05:00 +10°C° 0 mm 1 mps 738 mmHg 93%
    06:00 +10°C° 0 mm 1 mps 738 mmHg 92%
    07:00 +11°C° 0 mm 1 mps 738 mmHg 91%
    08:00 +13°C° 0 mm 1 mps 738 mmHg 84%
    09:00 +15°C° 0 mm 1 mps 737 mmHg 77%
    10:00 +18°C° 0 mm 1 mps 737 mmHg 71%
    11:00 +19°C° 0 mm 1 mps 737 mmHg 68%
    12:00 +18°C° 0 mm 2 mps 737 mmHg 65%
    13:00 +19°C° 0 mm 2 mps 736 mmHg 63%
    14:00 +19°C° 0 mm 2 mps 736 mmHg 64%
    15:00 +19°C° 0 mm 2 mps 736 mmHg 65%
    16:00 +19°C° 0 mm 2 mps 736 mmHg 67%
    17:00 +18°C° 0 mm 1 mps 736 mmHg 73%
    18:00 +15°C° 0 mm 1 mps 736 mmHg 80%
    19:00 +14°C° 0 mm 1 mps 736 mmHg 87%
    20:00 +13°C° 0 mm 1 mps 736 mmHg 88%
    21:00 +13°C° 0 mm 1 mps 736 mmHg 90%
    22:00 +12°C° 0 mm 1 mps 736 mmHg 91%
    23:00 +12°C° 0 mm 1 mps 736 mmHg 92%

    Day after tomorrow, 24 September, Sunday

    Time Temperature Precipitation Wind Pressure Humidity
    00:00 +11°C° 0 mm 1 mps 736 mmHg 93%
    01:00 +11°C° 0 mm 1 mps 736 mmHg 93%
    02:00 +11°C° 0 mm 1 mps 735 mmHg 94%
    03:00 +11°C° 0 mm 1 mps 735 mmHg 94%
    04:00 +10°C° 0 mm 1 mps 735 mmHg 95%
    05:00 +11°C° 0 mm 1 mps 735 mmHg 94%
    06:00 +11°C° 0 mm 1 mps 735 mmHg 93%
    07:00 +12°C° 0 mm 1 mps 735 mmHg 92%
    08:00 +13°C° 0 mm 1 mps 735 mmHg 87%
    09:00 +14°C° 0 mm 2 mps 735 mmHg 83%
    10:00 +16°C° 0 mm 2 mps 735 mmHg 78%
    11:00 +17°C° 0.3 mm 2 mps 735 mmHg 74%
    12:00 +17°C° 0.3 mm 2 mps 735 mmHg 71%
    13:00 +18°C° 0.3 mm 2 mps 735 mmHg 67%
    14:00 +18°C° 0.2 mm 2 mps 735 mmHg 69%
    15:00 +19°C° 0.2 mm 1 mps 735 mmHg 70%
    16:00 +19°C° 0.2 mm 1 mps 735 mmHg 71%
    17:00 +16°C° 0.2 mm 1 mps 735 mmHg 77%
    18:00 +13°C° 0.2 mm 0 mps 735 mmHg 83%
    19:00 +12°C° 0.2 mm 0 mps 735 mmHg 89%
    20:00 +11°C° 0 mm 0 mps 735 mmHg 90%
    21:00 +12°C° 0 mm 1 mps 735 mmHg 91%
    22:00 +11°C° 0 mm 1 mps 735 mmHg 92%
    23:00 +11°C° 0 mm 1 mps 735 mmHg 92%

    25 September, Monday

    Time Temperature Precipitation Wind Pressure Humidity
    00:00 +11°C° 0 mm 1 mps 735 mmHg 93%
    01:00 +11°C° 0 mm 1 mps 735 mmHg 93%
    02:00 +11°C° 0 mm 1 mps 735 mmHg 93%
    03:00 +10°C° 0 mm 1 mps 735 mmHg 93%
    04:00 +10°C° 0 mm 1 mps 735 mmHg 94%
    05:00 +11°C° 0 mm 1 mps 735 mmHg 93%
    06:00 +11°C° 0 mm 1 mps 735 mmHg 92%
    07:00 +11°C° 0 mm 1 mps 735 mmHg 92%
    08:00 +13°C° 0 mm 1 mps 735 mmHg 87%
    09:00 +14°C° 0 mm 1 mps 735 mmHg 82%
    10:00 +16°C° 0 mm 1 mps 735 mmHg 77%
    11:00 +18°C° 0.3 mm 1 mps 735 mmHg 76%
    12:00 +18°C° 0.3 mm 1 mps 735 mmHg 74%
    13:00 +18°C° 0.3 mm 2 mps 734 mmHg 73%
    14:00 +18°C° 0.5 mm 2 mps 734 mmHg 75%
    15:00 +18°C° 0.5 mm 2 mps 734 mmHg 77%
    16:00 +18°C° 0.5 mm 2 mps 734 mmHg 79%
    17:00 +16°C° 0.1 mm 2 mps 734 mmHg 84%
    18:00 +14°C° 0.1 mm 2 mps 735 mmHg 89%
    19:00 +13°C° 0.1 mm 2 mps 735 mmHg 94%
    20:00 +12°C° 0 mm 2 mps 735 mmHg 95%
    21:00 +12°C° 0 mm 1 mps 735 mmHg 95%
    22:00 +11°C° 0 mm 1 mps 735 mmHg 95%
    23:00 +11°C° 0 mm 1 mps 735 mmHg 95%

    26 September, Tuesday

    Time Temperature Precipitation Wind Pressure Humidity
    00:00 +11°C° 0 mm 1 mps 735 mmHg 94%
    01:00 +10°C° 0 mm 1 mps 735 mmHg 94%
    02:00 +10°C° 0 mm 1 mps 735 mmHg 94%
    03:00 +10°C° 0 mm 1 mps 735 mmHg 93%
    04:00 +10°C° 0 mm 1 mps 735 mmHg 93%
    05:00 +10°C° 0 mm 1 mps 735 mmHg 92%
    06:00 +11°C° 0 mm 1 mps 735 mmHg 91%
    07:00 +11°C° 0 mm 1 mps 735 mmHg 91%
    08:00 +13°C° 0 mm 1 mps 735 mmHg 83%
    09:00 +15°C° 0 mm 1 mps 735 mmHg 75%
    10:00 +19°C° 0 mm 1 mps 735 mmHg 68%
    11:00 +20°C° 0 mm 1 mps 735 mmHg 64%
    12:00 +21°C° 0 mm 1 mps 735 mmHg 60%
    13:00 +21°C° 0 mm 2 mps 735 mmHg 55%
    14:00 +20°C° 0 mm 2 mps 735 mmHg 59%
    15:00 +20°C° 0 mm 2 mps 735 mmHg 62%
    16:00 +20°C° 0 mm 2 mps 735 mmHg 66%
    17:00 +18°C° 0 mm 2 mps 735 mmHg 75%
    18:00 +16°C° 0 mm 1 mps 735 mmHg 83%
    19:00 +14°C° 0 mm 1 mps 736 mmHg 92%
    20:00 +13°C° 0 mm 1 mps 736 mmHg 93%
    21:00 +13°C° 0 mm 1 mps 736 mmHg 94%
    22:00 +13°C° 0 mm 1 mps 736 mmHg 95%
    23:00 +12°C° 0 mm 1 mps 736 mmHg 95%

    27 September, Wednesday

    Time Temperature Precipitation Wind Pressure Humidity
    00:00 +12°C° 0 mm 1 mps 736 mmHg 95%
    01:00 +12°C° 0 mm 1 mps 737 mmHg 95%
    02:00 +12°C° 0 mm 1 mps 737 mmHg 95%
    03:00 +12°C° 0 mm 1 mps 737 mmHg 95%
    04:00 +12°C° 0 mm 1 mps 737 mmHg 95%
    05:00 +12°C° 0 mm 1 mps 737 mmHg 94%
    06:00 +12°C° 0 mm 1 mps 737 mmHg 93%
    07:00 +12°C° 0 mm 1 mps 738 mmHg 92%
    08:00 +14°C° 0 mm 1 mps 738 mmHg 86%
    09:00 +16°C° 0 mm 1 mps 738 mmHg 80%
    10:00 +18°C° 0 mm 1 mps 738 mmHg 75%
    11:00 +20°C° 0 mm 1 mps 738 mmHg 71%
    12:00 +20°C° 0 mm 2 mps 737 mmHg 67%
    13:00 +21°C° 0 mm 2 mps 737 mmHg 63%
    14:00 +21°C° 0.1 mm 2 mps 737 mmHg 66%
    15:00 +20°C° 0.1 mm 2 mps 737 mmHg 69%
    16:00 +20°C° 0.1 mm 2 mps 737 mmHg 71%
    17:00 +19°C° 0.4 mm 2 mps 737 mmHg 77%
    18:00 +19°C° 0.4 mm 1 mps 737 mmHg 84%
    19:00 +16°C° 0.4 mm 1 mps 737 mmHg 90%
    20:00 +16°C° 0.7 mm 1 mps 737 mmHg 91%
    21:00 +15°C° 0.7 mm 1 mps 737 mmHg 93%
    22:00 +15°C° 0.7 mm 1 mps 737 mmHg 94%
    23:00 +15°C° 0.5 mm 1 mps 737 mmHg 95%
    Show more